This is the latest recevied weather packets stored in our database for station/object KC4JIR. If no packets are shown the sender has not sent any weather packets the latest 10 day(s).
| Time | Temp. | Humidity | Pressure | Rain* | Wind** | Luminosity | Snow |
|---|---|---|---|---|---|---|---|
| 1778181453 | 22.22° C | 99% | 1009.1 hPa | 1.78 mm | - | 219 W/m² | - |
| 1778181150 | 21.67° C | 99% | 1009 hPa | 1.78 mm | - | 202 W/m² | - |
| 1778180847 | 21.67° C | 99% | 1009.4 hPa | 0 mm | - | 137 W/m² | - |
| 1778180546 | 21.67° C | 99% | 1009.3 hPa | 0 mm | - | 137 W/m² | - |
| 1778180244 | 21.67° C | 99% | 1009.3 hPa | 0 mm | - | 130 W/m² | - |
| 1778179940 | 21.67° C | 99% | 1009.2 hPa | 0 mm | - | 141 W/m² | - |
| 1778179638 | 21.67° C | 99% | 1009.5 hPa | 0 mm | - | 206 W/m² | - |
| 1778179336 | 21.67° C | 99% | 1009.2 hPa | 0 mm | - | 196 W/m² | - |
| 1778179032 | 21.67° C | 99% | 1009.3 hPa | 0 mm | - | 128 W/m² | - |
| 1778178728 | 21.67° C | 99% | 1009.2 hPa | 0 mm | - | 184 W/m² | - |
| 1778178426 | 21.67° C | 99% | 1009.4 hPa | 1.27 mm | - | 144 W/m² | - |
| 1778178116 | 21.67° C | 99% | 1009.5 hPa | 1.27 mm | - | 136 W/m² | - |
| 1778177812 | 21.67° C | 99% | 1009.5 hPa | 1.78 mm | - | 150 W/m² | - |
| 1778177508 | 21.67° C | 99% | 1009.5 hPa | 1.78 mm | - | 319 W/m² | - |
| 1778177199 | 21.11° C | 99% | 1009.6 hPa | 0 mm | - | 92 W/m² | - |
| 1778176897 | 21.11° C | 99% | 1009.7 hPa | 8.89 mm | - | 112 W/m² | - |
| 1778176592 | 21.11° C | 99% | 1009.7 hPa | 16.76 mm | - | 131 W/m² | - |
| 1778176290 | 21.11° C | 99% | 1009.8 hPa | 10.67 mm | - | 76 W/m² | - |
| 1778175987 | 21.11° C | 99% | 1009.6 hPa | 8.89 mm | - | 72 W/m² | - |
| 1778175685 | 21.67° C | 99% | 1009.8 hPa | 25.91 mm | - | 78 W/m² | - |
| 1778175382 | 22.22° C | 99% | 1009.9 hPa | 49.28 mm | - | 35 W/m² | - |
| 1778175079 | 23.33° C | 97% | 1009.7 hPa | 11.94 mm | - | 19 W/m² | - |
| 1778174774 | 23.33° C | 95% | 1009.6 hPa | 1.27 mm | - | 24 W/m² | - |
| 1778174472 | 23.89° C | 94% | 1009.3 hPa | 0 mm | - | 35 W/m² | - |
| 1778174167 | 23.33° C | 94% | 1009 hPa | 0 mm | - | 49 W/m² | - |
* Rain latest hour (hover to see other rain measurements)
** Current wind speed in m/s (hover to see current wind gust speed)